Вернуться в каталог

METEOR 2-17 DEB

АктивенPO
NORAD 38286·DEBRIS·🇷🇺 Russia

Запущен Jan 30, 1988 с Plesetsk Cosmodrome

Loading…

Ближайшие Пролёты (ближайшие 24 часа)

TLE

СвежийSource: Space-Track

Эпоха: Sep 13, 2026, 12:46 UTC

1 38286U 88005AP  26256.53206692  .00000483  00000-0  29521-3 0  9999
2 38286  82.5396 185.7134 0047832  11.5331 348.6923 14.03541702754984

Отслеживайте METEOR 2-17 DEB в реальном времени с AllMySat

Download on the App Store